QPF
0.01 0.02 0.01 0.01 0.00 0.00 0.01 0.01 0.01 0.01 0.00 0.00 0.00 0.00 0.00 0.00 0.01 0.01 0.01 0.01 0.01 0.02 0.03 0.03 0.02 0.03 0.03 0.03 0.03 0.03 0.04 0.05 0.05 0.05 0.04 0.04 0.05 0.08 0.08 0.09 0.06 0.03 0.05
0.01 0.01 0.01 0.01 0.00 0.01 0.01 0.01 0.01 0.01 0.01 0.00 0.00 0.00 0.00 0.00 0.01 0.01 0.00 0.01 0.01 0.02 0.02 0.02 0.02 0.02 0.02 0.02 0.02 0.03 0.03 0.04 0.05 0.05 0.04 0.03 0.06 0.08 0.08 0.07 0.04 0.04 0.06
0.01 0.00 0.01 0.01 0.01 0.01 0.01 0.01 0.00 0.00 0.00 0.00 0.00 0.00 0.00 0.00 0.00 0.00 0.00 0.00 0.01 0.01 0.01 0.01 0.01 0.01 0.01 0.01 0.02 0.03 0.03 0.03 0.04 0.03 0.03 0.02 0.05 0.08 0.05 0.04 0.05 0.06 0.06
0.00 0.00 0.00 0.01 0.01 0.01 0.00 0.00 0.00 0.00 0.00 0.00 0.00 0.00 0.00 0.00 0.00 0.00 0.00 0.00 0.01 0.01 0.01 0.00 0.00 0.01 0.01 0.01 0.02 0.03 0.04 0.06 0.06 0.03 0.01 0.01 0.02 0.04 0.04 0.03 0.05 0.05 0.04
0.00 0.00 0.01 0.01 0.01 0.01 0.00 0.00 0.00 0.00 0.00 0.00 0.00 0.00 0.00 0.00 0.00 0.00 0.00 0.01 0.01 0.00 0.00 0.00 0.00 0.00 0.01 0.01 0.02 0.03 0.03 0.05 0.07 0.03 0.01 0.02 0.02 0.03 0.03 0.03 0.04 0.04 0.03
0.01 0.00 0.01 0.01 0.01 0.00 0.00 0.00 0.00 0.00 0.00 0.01 0.00 0.00 0.00 0.00 0.00 0.00 0.00 0.00 0.00 0.00 0.00 0.00 0.00 0.00 0.01 0.02 0.02 0.03 0.04 0.06 0.05 0.02 0.01 0.02 0.02 0.03 0.03 0.04 0.04 0.02 0.02
0.02 0.01 0.01 0.01 0.01 0.00 0.00 0.01 0.01 0.01 0.01 0.01 0.01 0.00 0.00 0.00 0.00 0.00 0.00 0.00 0.00 0.01 0.01 0.00 0.00 0.00 0.01 0.02 0.03 0.04 0.05 0.07 0.03 0.02 0.01 0.01 0.02 0.03 0.04 0.05 0.04 0.02 0.02
0.01 0.01 0.01 0.01 0.01 0.00 0.00 0.01 0.01 0.01 0.01 0.01 0.01 0.01 0.00 0.00 0.01 0.01 0.01 0.00 0.00 0.00 0.00 0.00 0.00 0.00 0.01 0.02 0.03 0.04 0.06 0.05 0.02 0.01 0.01 0.01 0.02 0.03 0.04 0.04 0.04 0.02 0.01
0.03 0.02 0.02 0.01 0.01 0.01 0.01 0.01 0.01 0.01 0.01 0.01 0.01 0.01 0.01 0.01 0.01 0.01 0.01 0.01 0.00 0.00 0.00 0.00 0.00 0.00 0.01 0.02 0.03 0.03 0.05 0.04 0.01 0.00 0.00 0.01 0.03 0.04 0.03 0.03 0.04 0.03 0.02
0.06 0.05 0.04 0.03 0.03 0.02 0.01 0.01 0.01 0.01 0.01 0.01 0.01 0.01 0.01 0.01 0.01 0.01 0.01 0.01 0.01 0.00 0.00 0.00 0.01 0.01 0.02 0.03 0.03 0.03 0.04 0.03 0.01 0.00 0.00 0.01 0.03 0.04 0.03 0.04 0.03 0.03 0.02
0.07 0.09 0.08 0.07 0.04 0.02 0.02 0.02 0.02 0.01 0.01 0.01 0.01 0.01 0.01 0.01 0.01 0.01 0.01 0.01 0.02 0.01 0.01 0.01 0.01 0.02 0.02 0.02 0.02 0.03 0.02 0.01 0.01 0.01 0.00 0.01 0.02 0.03 0.03 0.03 0.02 0.02 0.02
0.08 0.10 0.11 0.10 0.06 0.03 0.02 0.02 0.02 0.01 0.01 0.00 0.00 0.01 0.01 0.01 0.01 0.01 0.01 0.03 0.04 0.03 0.03 0.03 0.03 0.03 0.02 0.02 0.02 0.02 0.02 0.01 0.01 0.01 0.01 0.02 0.03 0.04 0.04 0.03 0.02 0.03 0.03
0.11 0.09 0.07 0.07 0.06 0.04 0.03 0.03 0.02 0.01 0.01 0.01 0.01 0.01 0.01 0.01 0.01 0.01 0.01 0.03 0.04 0.04 0.03 0.02 0.02 0.03 0.02 0.02 0.02 0.02 0.01 0.01 0.01 0.01 0.02 0.03 0.04 0.05 0.06 0.05 0.03 0.03 0.03
0.12 0.08 0.06 0.06 0.07 0.07 0.06 0.05 0.04 0.02 0.01 0.02 0.02 0.02 0.02 0.02 0.02 0.01 0.01 0.02 0.02 0.02 0.01 0.01 0.01 0.02 0.02 0.01 0.01 0.01 0.02 0.01 0.01 0.02 0.03 0.04 0.03 0.05 0.08 0.08 0.06 0.04 0.04
0.16 0.10 0.07 0.06 0.06 0.05 0.05 0.05 0.04 0.03 0.02 0.02 0.03 0.03 0.03 0.03 0.02 0.02 0.02 0.02 0.02 0.02 0.02 0.02 0.02 0.04 0.05 0.04 0.03 0.03 0.02 0.02 0.02 0.02 0.02 0.04 0.05 0.05 0.08 0.12 0.10 0.08 0.06
0.17 0.13 0.09 0.06 0.04 0.05 0.05 0.05 0.04 0.03 0.03 0.03 0.03 0.04 0.03 0.02 0.02 0.02 0.02 0.02 0.02 0.03 0.04 0.04 0.04 0.05 0.05 0.04 0.03 0.03 0.02 0.01 0.01 0.01 0.02 0.04 0.05 0.06 0.08 0.11 0.14 0.12 0.11
0.18 0.17 0.16 0.11 0.09 0.07 0.07 0.06 0.05 0.06 0.05 0.05 0.03 0.03 0.02 0.01 0.01 0.02 0.04 0.03 0.03 0.03 0.05 0.05 0.05 0.05 0.04 0.02 0.02 0.03 0.02 0.01 0.01 0.01 0.01 0.03 0.03 0.06 0.09 0.10 0.10 0.11 0.11
0.23 0.30 0.32 0.28 0.23 0.16 0.12 0.08 0.05 0.06 0.07 0.05 0.03 0.03 0.03 0.02 0.01 0.02 0.03 0.03 0.04 0.04 0.05 0.06 0.05 0.04 0.03 0.02 0.02 0.02 0.02 0.03 0.02 0.02 0.02 0.03 0.05 0.06 0.09 0.14 0.13 0.11 0.11
0.26 0.28 0.29 0.28 0.30 0.25 0.21 0.16 0.10 0.07 0.06 0.04 0.04 0.03 0.02 0.02 0.01 0.01 0.02 0.02 0.02 0.03 0.03 0.04 0.04 0.04 0.03 0.02 0.02 0.03 0.03 0.03 0.04 0.05 0.04 0.03 0.04 0.05 0.08 0.13 0.14 0.13 0.15
0.22 0.22 0.22 0.17 0.16 0.18 0.20 0.19 0.14 0.11 0.08 0.06 0.04 0.03 0.02 0.01 0.01 0.01 0.01 0.01 0.02 0.03 0.03 0.03 0.04 0.03 0.02 0.02 0.02 0.02 0.02 0.02 0.03 0.03 0.02 0.02 0.02 0.02 0.05 0.07 0.08 0.09 0.13
0.17 0.18 0.17 0.16 0.13 0.10 0.09 0.10 0.09 0.10 0.08 0.06 0.04 0.02 0.02 0.02 0.01 0.01 0.01 0.01 0.01 0.01 0.01 0.01 0.02 0.02 0.01 0.02 0.02 0.02 0.02 0.02 0.02 0.02 0.01 0.01 0.01 0.02 0.03 0.04 0.05 0.06 0.08
0.18 0.20 0.17 0.11 0.08 0.09 0.08 0.09 0.08 0.09 0.08 0.06 0.03 0.02 0.02 0.02 0.01 0.01 0.01 0.01 0.01 0.00 0.00 0.00 0.00 0.01 0.01 0.00 0.00 0.00 0.01 0.02 0.01 0.01 0.01 0.01 0.01 0.01 0.02 0.04 0.04 0.04 0.06
0.16 0.19 0.19 0.14 0.10 0.11 0.10 0.10 0.09 0.09 0.07 0.06 0.03 0.01 0.01 0.01 0.01 0.01 0.01 0.01 0.00 0.00 0.00 0.00 0.00 0.00 0.00 0.00 0.00 0.00 0.00 0.00 0.00 0.00 0.00 0.00 0.01 0.01 0.01 0.02 0.02 0.03 0.03
0.16 0.16 0.17 0.15 0.13 0.13 0.11 0.09 0.07 0.05 0.04 0.02 0.02 0.02 0.01 0.01 0.01 0.01 0.01 0.01 0.01 0.00 0.00 0.00 0.00 0.00 0.00 0.00 0.00 0.00 0.00 0.00 0.00 0.00 0.00 0.00 0.00 0.00 0.00 0.00 0.01 0.01 0.01
0.10 0.11 0.12 0.12 0.12 0.11 0.11 0.09 0.06 0.04 0.04 0.03 0.03 0.03 0.02 0.01 0.01 0.01 0.00 0.00 0.01 0.00 0.00 0.00 0.00 0.00 0.00 0.00 0.00 0.00 0.00 0.00 0.00 0.00 0.00 0.00 0.00 0.00 0.00 0.00 0.00 0.00 0.01
0.08 0.10 0.08 0.09 0.08 0.08 0.08 0.07 0.05 0.03 0.02 0.02 0.02 0.02 0.02 0.02 0.01 0.01 0.00 0.00 0.00 0.00 0.00 0.00 0.00 0.00 0.00 0.00 0.00 0.00 0.00 0.00 0.00 0.00 0.00 0.00 0.00 0.00 0.00 0.00 0.00 0.00 0.00
MSLP
1010.27 1010.12 1010.16 1010.39 1010.76 1011.17 1011.57 1011.89 1012.10 1012.19 1012.22 1012.23 1012.28 1012.39 1012.59 1012.85 1013.13 1013.41 1013.64 1013.80 1013.88 1013.90 1013.88 1013.85 1013.84 1013.85 1013.90 1013.97 1014.06 1014.16 1014.26 1014.37 1014.49 1014.62 1014.77 1014.95 1015.15 1015.38 1015.63 1015.88 1016.13 1016.37 1016.60
1009.95 1009.90 1010.05 1010.37 1010.81 1011.29 1011.72 1012.06 1012.27 1012.38 1012.42 1012.45 1012.52 1012.67 1012.89 1013.17 1013.46 1013.73 1013.94 1014.08 1014.14 1014.15 1014.13 1014.11 1014.10 1014.13 1014.18 1014.25 1014.33 1014.41 1014.50 1014.60 1014.71 1014.84 1015.00 1015.19 1015.41 1015.65 1015.90 1016.15 1016.41 1016.66 1016.91
1009.70 1009.74 1009.97 1010.38 1010.88 1011.41 1011.88 1012.24 1012.48 1012.61 1012.69 1012.75 1012.86 1013.03 1013.27 1013.54 1013.81 1014.05 1014.22 1014.31 1014.34 1014.33 1014.31 1014.30 1014.31 1014.35 1014.41 1014.49 1014.57 1014.65 1014.74 1014.83 1014.95 1015.09 1015.27 1015.47 1015.69 1015.93 1016.18 1016.43 1016.68 1016.94 1017.20
1009.55 1009.67 1009.97 1010.44 1011.00 1011.57 1012.07 1012.45 1012.72 1012.89 1013.00 1013.11 1013.25 1013.44 1013.68 1013.93 1014.16 1014.35 1014.46 1014.51 1014.50 1014.48 1014.45 1014.45 1014.49 1014.55 1014.63 1014.72 1014.81 1014.89 1014.99 1015.09 1015.22 1015.39 1015.58 1015.79 1016.02 1016.25 1016.48 1016.71 1016.95 1017.20 1017.47
1009.51 1009.70 1010.07 1010.58 1011.17 1011.75 1012.27 1012.67 1012.96 1013.16 1013.31 1013.46 1013.63 1013.84 1014.08 1014.31 1014.50 1014.63 1014.69 1014.70 1014.67 1014.63 1014.61 1014.63 1014.68 1014.77 1014.86 1014.96 1015.06 1015.15 1015.25 1015.37 1015.52 1015.70 1015.91 1016.14 1016.36 1016.58 1016.79 1017.00 1017.22 1017.45 1017.72
1009.57 1009.82 1010.23 1010.78 1011.38 1011.96 1012.47 1012.87 1013.16 1013.38 1013.57 1013.75 1013.96 1014.19 1014.42 1014.64 1014.80 1014.90 1014.93 1014.91 1014.87 1014.83 1014.83 1014.86 1014.94 1015.03 1015.14 1015.24 1015.33 1015.42 1015.52 1015.65 1015.82 1016.02 1016.25 1016.48 1016.71 1016.91 1017.10 1017.27 1017.46 1017.68 1017.94
1009.70 1010.00 1010.45 1011.00 1011.59 1012.15 1012.63 1013.00 1013.29 1013.52 1013.72 1013.94 1014.18 1014.45 1014.70 1014.92 1015.08 1015.16 1015.18 1015.15 1015.12 1015.10 1015.11 1015.17 1015.26 1015.36 1015.46 1015.54 1015.62 1015.69 1015.79 1015.92 1016.09 1016.31 1016.55 1016.79 1017.02 1017.21 1017.37 1017.52 1017.69 1017.88 1018.13
1009.87 1010.21 1010.68 1011.23 1011.79 1012.31 1012.74 1013.07 1013.34 1013.56 1013.79 1014.04 1014.33 1014.63 1014.91 1015.15 1015.33 1015.42 1015.45 1015.43 1015.42 1015.42 1015.46 1015.53 1015.63 1015.73 1015.81 1015.87 1015.91 1015.95 1016.03 1016.14 1016.32 1016.54 1016.79 1017.04 1017.27 1017.46 1017.60 1017.73 1017.87 1018.05 1018.28
1010.06 1010.44 1010.92 1011.45 1011.98 1012.44 1012.81 1013.10 1013.34 1013.56 1013.80 1014.09 1014.42 1014.76 1015.09 1015.37 1015.57 1015.68 1015.73 1015.74 1015.74 1015.77 1015.83 1015.92 1016.02 1016.11 1016.16 1016.19 1016.19 1016.19 1016.23 1016.32 1016.48 1016.70 1016.96 1017.21 1017.45 1017.63 1017.78 1017.89 1018.02 1018.18 1018.40
1010.25 1010.66 1011.15 1011.66 1012.14 1012.55 1012.87 1013.12 1013.33 1013.55 1013.81 1014.14 1014.51 1014.90 1015.27 1015.59 1015.81 1015.95 1016.02 1016.05 1016.07 1016.12 1016.19 1016.29 1016.39 1016.46 1016.49 1016.48 1016.44 1016.40 1016.39 1016.45 1016.59 1016.80 1017.05 1017.31 1017.55 1017.75 1017.89 1018.01 1018.13 1018.28 1018.49
1010.44 1010.86 1011.35 1011.85 1012.29 1012.66 1012.94 1013.16 1013.36 1013.59 1013.88 1014.24 1014.65 1015.08 1015.49 1015.82 1016.07 1016.22 1016.30 1016.34 1016.38 1016.43 1016.51 1016.61 1016.70 1016.77 1016.78 1016.73 1016.66 1016.58 1016.54 1016.56 1016.67 1016.86 1017.10 1017.36 1017.61 1017.81 1017.97 1018.10 1018.22 1018.36 1018.56
1010.60 1011.03 1011.52 1012.00 1012.42 1012.76 1013.02 1013.24 1013.45 1013.70 1014.01 1014.40 1014.85 1015.30 1015.73 1016.07 1016.33 1016.48 1016.56 1016.59 1016.63 1016.68 1016.77 1016.87 1016.96 1017.02 1017.02 1016.97 1016.88 1016.77 1016.70 1016.69 1016.76 1016.92 1017.14 1017.40 1017.64 1017.86 1018.03 1018.17 1018.30 1018.44 1018.64
1010.69 1011.13 1011.60 1012.07 1012.49 1012.83 1013.10 1013.34 1013.58 1013.86 1014.20 1014.62 1015.08 1015.55 1015.97 1016.31 1016.55 1016.70 1016.76 1016.79 1016.82 1016.87 1016.95 1017.06 1017.16 1017.23 1017.24 1017.20 1017.10 1016.99 1016.89 1016.86 1016.89 1017.02 1017.21 1017.44 1017.68 1017.90 1018.09 1018.24 1018.38 1018.54 1018.73
1010.67 1011.09 1011.56 1012.03 1012.46 1012.83 1013.14 1013.42 1013.71 1014.03 1014.41 1014.84 1015.30 1015.76 1016.16 1016.49 1016.71 1016.84 1016.90 1016.92 1016.95 1017.00 1017.09 1017.21 1017.33 1017.42 1017.46 1017.43 1017.35 1017.24 1017.14 1017.08 1017.08 1017.17 1017.32 1017.52 1017.74 1017.95 1018.14 1018.31 1018.46 1018.63 1018.82
1010.47 1010.87 1011.33 1011.82 1012.28 1012.71 1013.09 1013.45 1013.80 1014.16 1014.57 1015.00 1015.45 1015.88 1016.26 1016.55 1016.76 1016.88 1016.94 1016.98 1017.02 1017.09 1017.20 1017.34 1017.48 1017.60 1017.67 1017.68 1017.62 1017.53 1017.43 1017.35 1017.32 1017.36 1017.47 1017.62 1017.80 1018.00 1018.18 1018.36 1018.53 1018.70 1018.89
1010.07 1010.45 1010.91 1011.42 1011.95 1012.45 1012.93 1013.38 1013.80 1014.22 1014.64 1015.07 1015.48 1015.87 1016.21 1016.49 1016.69 1016.82 1016.90 1016.97 1017.05 1017.15 1017.29 1017.46 1017.63 1017.78 1017.88 1017.92 1017.90 1017.83 1017.74 1017.65 1017.59 1017.58 1017.63 1017.73 1017.87 1018.03 1018.19 1018.36 1018.54 1018.72 1018.91
1009.50 1009.84 1010.31 1010.86 1011.47 1012.09 1012.68 1013.23 1013.74 1014.20 1014.63 1015.03 1015.40 1015.74 1016.04 1016.29 1016.50 1016.66 1016.80 1016.92 1017.05 1017.20 1017.38 1017.58 1017.77 1017.95 1018.08 1018.15 1018.15 1018.11 1018.02 1017.93 1017.84 1017.79 1017.78 1017.82 1017.90 1018.01 1018.15 1018.30 1018.47 1018.65 1018.85
1008.80 1009.12 1009.60 1010.22 1010.93 1011.66 1012.38 1013.04 1013.63 1014.13 1014.56 1014.92 1015.24 1015.52 1015.78 1016.02 1016.24 1016.45 1016.65 1016.85 1017.05 1017.26 1017.47 1017.69 1017.90 1018.09 1018.23 1018.32 1018.35 1018.33 1018.25 1018.16 1018.05 1017.96 1017.89 1017.86 1017.88 1017.94 1018.03 1018.16 1018.31 1018.49 1018.68
1008.10 1008.40 1008.91 1009.60 1010.41 1011.27 1012.12 1012.89 1013.55 1014.08 1014.49 1014.81 1015.07 1015.29 1015.51 1015.74 1015.99 1016.25 1016.52 1016.80 1017.07 1017.33 1017.58 1017.80 1018.01 1018.19 1018.33 1018.42 1018.47 1018.46 1018.41 1018.32 1018.20 1018.08 1017.96 1017.88 1017.83 1017.82 1017.86 1017.95 1018.08 1018.24 1018.43
1007.52 1007.81 1008.35 1009.11 1010.02 1011.00 1011.96 1012.82 1013.54 1014.10 1014.49 1014.76 1014.95 1015.11 1015.30 1015.52 1015.79 1016.11 1016.45 1016.80 1017.13 1017.43 1017.69 1017.91 1018.10 1018.25 1018.37 1018.46 1018.51 1018.52 1018.49 1018.42 1018.30 1018.16 1018.01 1017.87 1017.76 1017.69 1017.67 1017.71 1017.80 1017.94 1018.11
1007.17 1007.46 1008.03 1008.84 1009.83 1010.90 1011.94 1012.88 1013.65 1014.21 1014.58 1014.80 1014.94 1015.05 1015.20 1015.42 1015.72 1016.08 1016.48 1016.88 1017.25 1017.57 1017.82 1018.02 1018.16 1018.28 1018.37 1018.44 1018.50 1018.54 1018.53 1018.49 1018.39 1018.25 1018.08 1017.90 1017.73 1017.60 1017.52 1017.49 1017.54 1017.64 1017.79
1007.12 1007.42 1008.00 1008.84 1009.87 1010.99 1012.08 1013.06 1013.85 1014.41 1014.76 1014.94 1015.04 1015.12 1015.25 1015.47 1015.79 1016.18 1016.62 1017.06 1017.44 1017.75 1017.98 1018.13 1018.23 1018.29 1018.35 1018.41 1018.48 1018.54 1018.57 1018.57 1018.50 1018.38 1018.20 1018.00 1017.78 1017.59 1017.45 1017.36 1017.35 1017.41 1017.53
1007.42 1007.70 1008.27 1009.10 1010.12 1011.23 1012.33 1013.30 1014.09 1014.64 1014.98 1015.15 1015.23 1015.30 1015.42 1015.65 1015.99 1016.41 1016.86 1017.31 1017.69 1017.98 1018.16 1018.26 1018.31 1018.32 1018.35 1018.40 1018.48 1018.57 1018.65 1018.69 1018.67 1018.58 1018.41 1018.20 1017.95 1017.71 1017.51 1017.36 1017.29 1017.29 1017.36
1008.00 1008.27 1008.79 1009.55 1010.51 1011.56 1012.60 1013.54 1014.29 1014.83 1015.17 1015.34 1015.43 1015.52 1015.67 1015.92 1016.27 1016.70 1017.17 1017.60 1017.96 1018.22 1018.36 1018.41 1018.41 1018.38 1018.39 1018.44 1018.53 1018.66 1018.78 1018.88 1018.91 1018.86 1018.71 1018.50 1018.24 1017.97 1017.72 1017.52 1017.38 1017.32 1017.33
1008.79 1009.02 1009.46 1010.12 1010.95 1011.89 1012.83 1013.69 1014.40 1014.92 1015.26 1015.46 1015.59 1015.72 1015.91 1016.19 1016.57 1017.02 1017.48 1017.90 1018.23 1018.45 1018.56 1018.57 1018.53 1018.48 1018.47 1018.52 1018.64 1018.80 1018.97 1019.12 1019.20 1019.19 1019.08 1018.88 1018.62 1018.34 1018.05 1017.80 1017.60 1017.48 1017.42
1009.67 1009.85 1010.19 1010.71 1011.39 1012.17 1012.98 1013.73 1014.37 1014.87 1015.23 1015.47 1015.66 1015.85 1016.11 1016.44 1016.84 1017.30 1017.76 1018.16 1018.47 1018.66 1018.73 1018.72 1018.66 1018.60 1018.59 1018.65 1018.79 1018.98 1019.18 1019.37 1019.49 1019.52 1019.45 1019.29 1019.04 1018.76 1018.46 1018.17 1017.93 1017.74 1017.61
Thickness
5783 5783 5781 5779 5776 5775 5773 5772 5771 5770 5770 5769 5768 5768 5767 5766 5765 5764 5763 5762 5761 5760 5759 5758 5757 5756 5755 5754 5753 5752 5751 5751 5750 5749 5748 5747 5746 5745 5744 5743 5742 5741 5739
5789 5784 5781 5779 5776 5773 5772 5770 5769 5768 5768 5767 5767 5766 5765 5764 5763 5763 5762 5761 5760 5759 5758 5756 5755 5754 5753 5752 5751 5750 5750 5749 5748 5747 5747 5746 5745 5744 5743 5742 5740 5739 5738
5788 5784 5780 5778 5775 5772 5770 5769 5767 5766 5765 5765 5764 5764 5763 5762 5762 5761 5760 5759 5758 5757 5756 5754 5753 5752 5751 5750 5749 5748 5748 5747 5746 5745 5745 5744 5743 5742 5741 5740 5739 5737 5736
5787 5783 5779 5776 5774 5771 5769 5767 5766 5764 5763 5762 5762 5762 5761 5760 5760 5759 5758 5757 5756 5755 5754 5752 5751 5750 5749 5748 5747 5746 5746 5745 5744 5743 5743 5742 5742 5741 5740 5739 5737 5735 5734
5783 5780 5778 5775 5772 5770 5767 5766 5764 5762 5761 5760 5760 5759 5759 5758 5757 5757 5756 5755 5754 5753 5752 5750 5749 5748 5747 5746 5745 5745 5744 5743 5742 5741 5741 5740 5740 5739 5738 5737 5735 5734 5733
5780 5778 5776 5773 5770 5768 5766 5764 5762 5761 5759 5759 5758 5757 5756 5756 5755 5754 5753 5752 5751 5750 5749 5748 5747 5746 5745 5745 5744 5743 5743 5742 5740 5739 5739 5738 5737 5737 5736 5735 5734 5732 5731
5777 5775 5773 5771 5768 5766 5764 5762 5761 5759 5758 5757 5756 5755 5754 5753 5752 5751 5750 5749 5748 5747 5746 5746 5745 5744 5743 5743 5742 5742 5741 5740 5739 5737 5736 5736 5735 5735 5734 5734 5732 5731 5729
5775 5773 5771 5768 5766 5764 5762 5760 5759 5757 5756 5755 5754 5752 5751 5751 5750 5749 5748 5746 5745 5744 5743 5743 5742 5742 5741 5741 5740 5740 5740 5738 5736 5735 5734 5734 5733 5733 5732 5731 5730 5729 5728
5772 5769 5767 5766 5764 5762 5760 5758 5756 5755 5754 5753 5752 5750 5749 5748 5747 5746 5745 5743 5742 5741 5741 5740 5739 5739 5739 5739 5738 5738 5737 5736 5735 5733 5733 5732 5731 5730 5730 5729 5728 5727 5726
5767 5765 5764 5763 5761 5759 5757 5756 5754 5753 5752 5750 5749 5748 5746 5745 5744 5743 5742 5741 5739 5738 5738 5737 5737 5737 5737 5736 5736 5736 5735 5734 5732 5731 5731 5730 5729 5728 5727 5727 5726 5725 5724
5762 5761 5760 5759 5758 5756 5754 5753 5752 5751 5749 5748 5747 5745 5744 5743 5742 5741 5739 5738 5737 5736 5735 5735 5735 5735 5734 5734 5734 5733 5733 5731 5730 5729 5728 5728 5727 5727 5726 5725 5724 5723 5723
5757 5757 5757 5756 5755 5753 5752 5751 5750 5749 5747 5745 5744 5743 5741 5740 5739 5738 5737 5736 5734 5733 5733 5732 5732 5732 5732 5731 5731 5731 5730 5729 5728 5727 5727 5726 5726 5725 5724 5723 5722 5722 5721
5756 5754 5754 5754 5752 5750 5749 5748 5747 5746 5744 5742 5741 5740 5738 5737 5736 5735 5734 5733 5732 5731 5730 5729 5729 5729 5729 5729 5728 5728 5727 5727 5726 5725 5725 5724 5724 5724 5722 5721 5720 5720 5719
5752 5752 5752 5752 5749 5748 5746 5746 5744 5743 5742 5740 5738 5737 5736 5734 5733 5732 5732 5731 5729 5728 5727 5727 5726 5726 5726 5727 5726 5726 5725 5724 5723 5723 5722 5722 5722 5721 5720 5719 5718 5718 5717
5750 5749 5750 5749 5747 5745 5744 5743 5741 5740 5739 5738 5736 5735 5734 5733 5732 5730 5729 5728 5727 5726 5725 5724 5724 5723 5723 5724 5724 5723 5723 5722 5721 5721 5720 5720 5720 5719 5718 5717 5716 5715 5715
5747 5747 5747 5746 5744 5742 5740 5740 5739 5737 5737 5736 5734 5733 5732 5731 5730 5729 5728 5726 5725 5724 5724 5723 5722 5721 5721 5721 5721 5720 5720 5719 5719 5718 5718 5718 5718 5717 5716 5715 5714 5713 5713
5745 5745 5744 5743 5742 5740 5738 5737 5736 5735 5734 5734 5733 5731 5731 5730 5729 5727 5726 5725 5723 5722 5722 5721 5720 5719 5719 5718 5718 5718 5717 5717 5717 5716 5716 5715 5715 5715 5714 5713 5712 5712 5711
5743 5741 5741 5741 5739 5737 5735 5734 5734 5732 5731 5731 5731 5730 5729 5728 5727 5725 5724 5723 5722 5721 5720 5719 5718 5716 5715 5715 5715 5715 5715 5715 5715 5714 5714 5713 5713 5713 5712 5711 5711 5710 5709
5742 5740 5738 5738 5736 5735 5734 5732 5731 5730 5729 5728 5728 5728 5728 5726 5725 5724 5723 5721 5720 5719 5718 5718 5715 5714 5713 5712 5712 5712 5713 5713 5713 5713 5712 5712 5711 5711 5710 5709 5709 5708 5708
5739 5737 5735 5735 5733 5732 5731 5728 5727 5726 5726 5726 5726 5726 5725 5724 5723 5722 5721 5719 5718 5718 5716 5716 5714 5713 5712 5711 5711 5710 5710 5710 5711 5710 5710 5710 5709 5709 5708 5708 5707 5707 5706
5736 5734 5733 5731 5730 5729 5727 5725 5723 5722 5722 5723 5724 5724 5723 5722 5721 5721 5719 5718 5717 5716 5715 5714 5713 5711 5710 5709 5708 5705 5706 5707 5707 5707 5708 5708 5707 5707 5706 5706 5705 5705 5705
5734 5732 5731 5729 5729 5728 5728 5726 5725 5722 5720 5721 5721 5721 5721 5720 5720 5719 5718 5717 5716 5715 5714 5713 5712 5710 5708 5708 5706 5702 5699 5700 5702 5704 5705 5705 5704 5704 5704 5704 5703 5703 5702
5733 5732 5731 5729 5728 5727 5726 5724 5721 5718 5717 5716 5717 5717 5718 5719 5718 5718 5717 5716 5715 5714 5713 5712 5712 5710 5707 5705 5705 5703 5697 5694 5695 5699 5700 5700 5701 5701 5701 5701 5700 5700 5699
5733 5732 5729 5728 5726 5725 5724 5723 5720 5717 5714 5715 5715 5715 5716 5717 5716 5716 5715 5714 5713 5713 5712 5712 5711 5710 5708 5704 5703 5702 5701 5699 5695 5692 5695 5696 5697 5697 5697 5698 5697 5697 5696
5734 5731 5728 5726 5724 5723 5722 5722 5720 5717 5715 5714 5714 5713 5714 5714 5714 5714 5713 5713 5712 5711 5711 5710 5710 5709 5708 5705 5703 5700 5698 5696 5695 5693 5689 5690 5692 5693 5693 5693 5693 5693 5692
5733 5730 5727 5725 5722 5721 5721 5721 5720 5717 5714 5712 5711 5710 5711 5711 5711 5711 5711 5711 5710 5709 5709 5709 5708 5708 5706 5705 5703 5701 5698 5696 5693 5691 5687 5685 5685 5687 5688 5689 5689 5689 5689